Molokai, HI

1:21 PM HST on March 27, 2017 (GMT -1000)
Molokai

Weather History for PHMK - November, 2013

Change the Weather History Date:

Sunday, November 3, 2013

  Actual Average Record
Temperature  
Mean Temperature 77 °F -  
Max Temperature 81 °F 83 °F 88 °F (1975)
Min Temperature 73 °F 69 °F 63 °F (1973)
Cooling Degree Days 12    
Growing Degree Days 27 (Base 50)    
Moisture  
Dew Point 67 °F    
Average Humidity 74    
Maximum Humidity 82    
Minimum Humidity 62    
Precipitation  
Precipitation 0.00 in - - ()
Sea Level Pressure  
Sea Level Pressure 30.05 in    
Wind  
Wind Speed 13 mph (NE)    
Max Wind Speed 21 mph    
Max Gust Speed 30 mph    
Visibility 10 miles    
Events Rain    
Averages and records for this station are not official NWS values.
T = Trace of Precipitation, MM = Missing Value Source: NWS Daily Summary

Daily Weather History Graph

Daily Weather History Graph

Search for Another Location

Airport or City:

Trip Planner

Search our weather history database for the weather conditions in past years. The results will help you decide how hot, cold, wet, or windy it might be!

Date:

Astronomy

Nov. 03, 2013 Rise Set
Actual Time 6:32 AM HST 5:51 PM HST
Civil Twilight 6:09 AM HST 6:14 PM HST
Nautical Twilight 5:43 AM HST 6:40 PM HST
Astronomical Twilight 5:16 AM HST 7:06 PM HST
Moon 6:46 AM HST (11/3) 6:19 PM HST (11/3)
Length of Visible Light 12h 04m
Length of Day
11h 18m
New Moon, 0% of the Moon is Illuminated
Nov 3
New Moon
Nov 9
First Quarter
Nov 17
Full
Nov 25
Last Quarter
Dec 2
New

Hourly Weather History & Observations

Time (HST) Temp. Heat Index Dew Point Humidity Pressure Visibility Wind Dir Wind Speed Gust Speed Precip Events Conditions
12:54 AM 75.0 °F - 69.1 °F 82% 30.07 in 10.0 mi NE 10.4 mph 19.6 mph 0.00 in Rain Light Rain
1:54 AM 73.9 °F - 68.0 °F 82% 30.06 in 10.0 mi NE 10.4 mph - 0.00 in   Partly Cloudy
2:54 AM 73.9 °F - 66.9 °F 79% 30.05 in 10.0 mi NE 13.8 mph 20.7 mph N/A   Clear
3:54 AM 73.9 °F - 66.0 °F 76% 30.04 in 10.0 mi NE 11.5 mph 20.7 mph N/A   Clear
4:54 AM 73.9 °F - 66.0 °F 76% 30.04 in 10.0 mi NE 13.8 mph 23.0 mph N/A   Clear
5:54 AM 73.9 °F - 66.9 °F 79% 30.06 in 10.0 mi NE 17.3 mph 26.5 mph N/A   Clear
6:54 AM 75.0 °F - 66.0 °F 73% 30.08 in 10.0 mi NE 17.3 mph 24.2 mph N/A   Partly Cloudy
7:54 AM 75.0 °F - 69.1 °F 82% 30.09 in 10.0 mi NE 11.5 mph 20.7 mph N/A   Partly Cloudy
8:54 AM 79.0 °F - 66.9 °F 66% 30.10 in 10.0 mi NE 17.3 mph 28.8 mph N/A   Scattered Clouds
9:54 AM 79.0 °F - 68.0 °F 69% 30.11 in 10.0 mi NE 17.3 mph 27.6 mph N/A   Scattered Clouds
10:54 AM 81.0 °F 83.8 °F 68.0 °F 65% 30.09 in 10.0 mi NNE 15.0 mph 26.5 mph N/A   Partly Cloudy
11:54 AM 81.0 °F 83.8 °F 68.0 °F 65% 30.06 in 10.0 mi ENE 20.7 mph 26.5 mph N/A   Partly Cloudy
12:54 PM 81.0 °F 83.3 °F 66.9 °F 62% 30.04 in 10.0 mi NE 19.6 mph 29.9 mph N/A   Partly Cloudy
1:54 PM 81.0 °F 83.3 °F 66.9 °F 62% 30.01 in 10.0 mi NNE 15.0 mph 26.5 mph N/A   Scattered Clouds
2:54 PM 80.1 °F 82.3 °F 66.9 °F 64% 30.00 in 10.0 mi NNE 13.8 mph 21.9 mph N/A   Mostly Cloudy
3:54 PM 77.0 °F - 66.9 °F 71% 30.01 in 10.0 mi NE 11.5 mph 24.2 mph N/A   Scattered Clouds
4:15 PM 77.0 °F - 66.2 °F 69% 30.00 in 10.0 mi NE 13.8 mph 21.9 mph N/A   Mostly Cloudy
4:22 PM 77.0 °F - 66.2 °F 69% 30.01 in 10.0 mi NE 10.4 mph 23.0 mph N/A   Scattered Clouds
4:54 PM 75.9 °F - 66.9 °F 74% 30.01 in 10.0 mi NE 12.7 mph 23.0 mph N/A   Scattered Clouds
5:54 PM 75.0 °F - 66.9 °F 76% 30.02 in 10.0 mi NE 10.4 mph - N/A   Mostly Cloudy
6:02 PM 75.2 °F - 66.2 °F 73% 30.02 in 10.0 mi NE 12.7 mph 18.4 mph N/A   Scattered Clouds
6:54 PM 75.0 °F - 66.9 °F 76% 30.04 in 10.0 mi NE 10.4 mph 20.7 mph N/A   Partly Cloudy
7:54 PM 73.9 °F - 66.9 °F 79% 30.06 in 10.0 mi NE 5.8 mph - N/A   Clear
8:54 PM 73.9 °F - 68.0 °F 82% 30.08 in 10.0 mi NE 6.9 mph - N/A   Scattered Clouds
9:54 PM 73.9 °F - 68.0 °F 82% 30.08 in 10.0 mi NE 10.4 mph - N/A   Partly Cloudy
10:54 PM 73.9 °F - 68.0 °F 82% 30.07 in 10.0 mi NE 10.4 mph 17.3 mph N/A   Scattered Clouds
11:54 PM 73.9 °F - 68.0 °F 82% 30.06 in 10.0 mi NE 8.1 mph - N/A   Scattered Clouds